East Taunton, MA

11:40 AM EST on December 05, 2016 (GMT -0500)
Taunton Municipal

Weather History for KTAN - November, 2013

Change the Weather History Date:

Monday, November 25, 2013

  Actual Average Record
Temperature  
Mean Temperature 26 °F -  
Max Temperature 36 °F 46 °F 72 °F (1979)
Min Temperature 18 °F 27 °F 5 °F (1989)
Degree Days  
Heating Degree Days 38    
Moisture  
Dew Point 3 °F    
Average Humidity 42    
Maximum Humidity 78    
Minimum Humidity 14    
Precipitation  
Precipitation 0.00 in - - ()
Sea Level Pressure  
Sea Level Pressure 30.33 in    
Wind  
Wind Speed 8 mph (West)    
Max Wind Speed 12 mph    
Max Gust Speed 20 mph    
Visibility 10 miles    
Events      
Averages and records for this station are not official NWS values.
T = Trace of Precipitation, MM = Missing Value Source: NWS Daily Summary

Daily Weather History Graph

Daily Weather History Graph

Search for Another Location

Airport or City:

Trip Planner

Search our weather history database for the weather conditions in past years. The results will help you decide how hot, cold, wet, or windy it might be!

Date:

Astronomy

Nov. 25, 2013 Rise Set
Actual Time 6:45 AM EST 4:16 PM EST
Civil Twilight 6:15 AM EST 4:46 PM EST
Nautical Twilight 5:40 AM EST 5:21 PM EST
Astronomical Twilight 5:07 AM EST 5:54 PM EST
Moon 11:41 PM EST (11/25) 11:57 AM EST (11/25)
Length of Visible Light 10h 31m
Length of Day
9h 30m
Waning Gibbous, 51% of the Moon is Illuminated
Nov 25
Waning Gibbous
Nov 25
Last Quarter
Dec 2
New
Dec 9
First Quarter
Dec 17
Full

Hourly Weather History & Observations

Time (EST) Temp. Windchill Dew Point Humidity Pressure Visibility Wind Dir Wind Speed Gust Speed Precip Events Conditions
12:52 AM 21.0 °F 9.3 °F -2.0 °F 36% 30.21 in 10.0 mi WNW 11.5 mph 19.6 mph N/A   Clear
1:52 AM 21.0 °F 9.9 °F -2.0 °F 36% 30.24 in 10.0 mi WNW 10.4 mph 19.6 mph N/A   Clear
2:52 AM 19.9 °F 8.6 °F -2.0 °F 38% 30.25 in 10.0 mi WNW 10.4 mph 18.4 mph N/A   Clear
3:52 AM 19.0 °F 10.0 °F -0.9 °F 42% 30.28 in 10.0 mi West 6.9 mph - N/A   Clear
4:52 AM 19.0 °F 9.0 °F -0.9 °F 42% 30.30 in 10.0 mi WNW 8.1 mph - N/A   Clear
5:52 AM 18.0 °F 9.8 °F -0.9 °F 44% 30.31 in 10.0 mi WNW 5.8 mph - N/A   Clear
6:52 AM 18.0 °F 9.8 °F -0.9 °F 44% 30.34 in 10.0 mi West 5.8 mph - N/A   Clear
7:52 AM 19.9 °F 11.1 °F -0.0 °F 42% 30.36 in 10.0 mi West 6.9 mph - N/A   Clear
8:52 AM 23.0 °F 13.9 °F -2.0 °F 34% 30.38 in 10.0 mi WNW 8.1 mph - N/A   Clear
9:52 AM 26.1 °F 19.4 °F -2.9 °F 28% 30.38 in 10.0 mi NW 5.8 mph - N/A   Clear
10:52 AM 28.0 °F 18.6 °F -4.0 °F 25% 30.37 in 10.0 mi West 10.4 mph - N/A   Clear
11:52 AM 32.0 °F 25.6 °F -6.0 °F 19% 30.36 in 10.0 mi Variable 6.9 mph - N/A   Clear
12:52 PM 35.1 °F 27.4 °F -9.9 °F 14% 30.35 in 10.0 mi WNW 10.4 mph - N/A   Clear
1:52 PM 35.1 °F 28.6 °F -6.0 °F 17% 30.34 in 10.0 mi West 8.1 mph - N/A   Clear
2:52 PM 35.1 °F 29.3 °F -0.0 °F 23% 30.34 in 10.0 mi SW 6.9 mph - N/A   Clear
3:52 PM 33.1 °F 27.7 °F 3.0 °F 28% 30.36 in 10.0 mi WSW 5.8 mph - N/A   Clear
4:52 PM 28.0 °F - 8.1 °F 43% 30.35 in 10.0 mi Calm Calm - N/A   Clear
5:52 PM 26.1 °F 21.9 °F 9.0 °F 49% 30.37 in 10.0 mi SSE 3.5 mph - N/A   Clear
6:52 PM 23.0 °F 18.4 °F 12.0 °F 63% 30.36 in 10.0 mi SSE 3.5 mph - N/A   Clear
7:52 PM 21.9 °F 17.2 °F 12.0 °F 66% 30.36 in 10.0 mi SW 3.5 mph - N/A   Clear
8:52 PM 24.1 °F 19.7 °F 14.0 °F 65% 30.35 in 10.0 mi SSE 3.5 mph - N/A   Clear
9:52 PM 21.0 °F - 15.1 °F 78% 30.33 in 10.0 mi Calm Calm - N/A   Clear
10:52 PM 30.0 °F 25.2 °F 18.0 °F 61% 30.30 in 10.0 mi SE 4.6 mph - N/A   Clear
11:52 PM 36.0 °F 31.1 °F 23.0 °F 59% 30.30 in 10.0 mi SSW 5.8 mph - N/A   Clear